Content
SEND FEEDBACK

Daily
Averages
Monthly
Summary
Australia

ALICE SPRINGS, NORTHERN TERRITORY


Home > Oceania > Australia > Northern Territory
Elevation: 1791 feet     Latitude: 23 49S     Longitude: 133 53E

WEATHER
 
SELECT A DAY
Number of Records: 298,207;   Date Range: 7/1/96 - 9/29/14
 
SHARE

PRINT THIS DATA

[ ← Previous Day ]
WEATHER ALMANAC - FEBRUARY 13, 2013
[ Next Day → ]
[ °C ]   °F
Weather ElementAverageHighLow
Temperature82.7 °F95 °F (3:00 pm)66 °F (6:30 am)
Dewpoint51.7 °F57.2 °F (11:30 pm)44 °F (12:30 am)
Humidity33.8 %64 % (6:30 am)15 % (3:00 pm)
Barometer29.90 in29.98 in (7:00 am)29.74 in (6:00 pm)
Wind Speed10.6 mph19.6 mph (10:30 pm)
Wind Gust34.5 mph (2:24 pm)
Weather ElementAverage
Visibility7.8 mi
Wind DirectionSSE (155.6 °)

Weather ElementTotal
Precipitation---
Cooling Degree Days15.5 (Base 65)
Growing Degree Days30.5 (Base 50)
Averaged from 64 records on February 13, 2013
WEATHER CONDITIONS BREAKOUT
WIND DIRECTION BREAKOUT
WEATHER BY HOUR - FEBRUARY 13, 2013
[ °C ]   °F
Local TimeTemperatureDewpointHumidityBarometerVisibilityWind DirectionWind SpeedGust SpeedPrecipitationEventsConditions
12:00 AM82.4 °F44.6 °F26 %29.95 in6.2 miSSE (150°)11.5 mph
12:30 AM80.0 °F44.0 °F18 %29.85 inSSE (150°)12.7 mph
12:30 AM80.6 °F44.6 °F28 %29.95 in6.2 miSSE (150°)12.7 mph
1:00 AM77.0 °F48.2 °F36 %29.95 in6.2 miSSE (150°)8.1 mph
1:30 AM75.2 °F50.0 °F41 %29.95 in6.2 miSSE (150°)5.8 mph
2:00 AM73.4 °F51.8 °F47 %29.95 in6.2 miSSE (150°)5.8 mph
2:30 AM73.4 °F50.0 °F44 %29.95 in6.2 miSE (130°)5.8 mph
3:00 AM69.8 °F53.6 °F56 %29.95 in6.2 miSSE (160°)6.9 mph
3:00 AM70.0 °F53.0 °F45 %29.83 inSSE (160°)6.9 mph
3:30 AM69.0 °F53.0 °F46 %29.83 inSW (220°)4.6 mph
3:30 AM69.8 °F53.6 °F56 %29.92 in6.2 miSW (220°)4.6 mph
4:00 AM68.0 °F51.8 °F56 %29.92 in6.2 miWSW (240°)5.8 mph
4:30 AM68.0 °F50.0 °F52 %29.92 in6.2 miWSW (240°)3.5 mph
5:00 AM68.0 °F51.8 °F56 %29.92 in6.2 miCalm
5:30 AM66.2 °F51.8 °F60 %29.95 in6.2 miSW (220°)4.6 mph
6:00 AM66.2 °F51.8 °F60 %29.95 inNW (320°)5.8 mphClear
6:00 AM67.0 °F52.0 °F48 %29.85 in19.0 miNW (320°)5.8 mphPartly Cloudy
6:30 AM66.0 °F53.0 °F53 %29.86 inWest (280°)5.8 mph
6:30 AM66.2 °F53.6 °F64 %29.95 inWest (280°)5.8 mphClear
7:00 AM68.0 °F51.8 °F56 %29.98 inWest (260°)6.9 mphClear
7:30 AM73.4 °F48.2 °F41 %29.98 inWSW (240°)5.8 mphClear
8:00 AM73.4 °F48.2 °F41 %29.98 inSW (230°)5.8 mphClear
8:30 AM77.0 °F48.2 °F36 %29.98 inSE (130°)11.5 mphClear
9:00 AM78.8 °F48.2 °F34 %29.98 inESE (120°)10.4 mphClear
9:00 AM79.0 °F48.0 °F23 %29.88 in19.0 miESE (120°)10.4 mphPartly Cloudy
9:30 AM82.0 °F49.0 °F22 %29.88 inESE (110°)13.8 mph
9:30 AM82.4 °F50.0 °F32 %29.98 inESE (110°)13.8 mphClear
10:00 AM82.4 °F50.0 °F32 %29.98 inESE (110°)11.5 mphClear
10:30 AM86.0 °F51.8 °F31 %29.98 inESE (120°)11.5 mphClear
11:00 AM87.8 °F53.6 °F31 %29.98 inESE (120°)15.0 mphClear
11:30 AM87.8 °F55.4 °F33 %29.95 inESE (120°)10.4 mphClear
12:00 PM89.6 °F53.6 °F29 %29.95 inSE (140°)12.7 mphClear
12:00 PM90.0 °F54.0 °F20 %29.84 in19.0 miSE (140°)12.7 mphPartly Cloudy
12:30 PM89.0 °F55.0 °F21 %29.83 inSE (130°)13.8 mph
12:30 PM89.6 °F55.4 °F31 %29.92 inSE (130°)13.8 mphClear
1:00 PM93.2 °F51.8 °F24 %29.92 inSSE (150°)11.5 mphClear
1:30 PM93.2 °F51.8 °F24 %29.89 inSouth (170°)8.1 mphClear
2:00 PM91.4 °F51.8 °F26 %29.89 inSE (130°)12.7 mphClear
2:24 PM93.2 °F51.8 °F24 %29.89 in6.2 miSE (140°)17.3 mph34.5 mphDust Whirls
2:30 PM93.2 °F51.8 °F24 %29.86 in6.2 miSE (140°)12.7 mph34.5 mphDust Whirls
3:00 PM95.0 °F53.6 °F25 %29.86 inSE (130°)13.8 mphClear
3:00 PM95.0 °F53.0 °F15 %29.76 in19.0 miSE (130°)13.8 mphPartly Cloudy
3:30 PM93.0 °F53.0 °F17 %29.75 inSSE (150°)10.4 mph
3:30 PM93.2 °F53.6 °F26 %29.86 inSSE (150°)10.4 mphClear
4:00 PM93.2 °F51.8 °F24 %29.86 inSouth (170°)10.4 mph23.0 mphClear
4:30 PM95.0 °F53.6 °F25 %29.83 inSE (130°)11.5 mphClear
5:00 PM95.0 °F51.8 °F23 %29.83 inSSE (160°)13.8 mphClear
5:30 PM93.2 °F51.8 °F24 %29.83 in6.2 miSSE (160°)12.7 mphScattered Clouds
6:00 PM91.4 °F51.8 °F26 %29.83 in6.2 miSSE (160°)12.7 mph
6:00 PM92.0 °F51.0 °F16 %29.74 inSSE (160°)12.7 mph
6:30 PM93.2 °F50.0 °F23 %29.83 in6.2 miSSE (160°)11.5 mphScattered Clouds
7:00 PM91.4 °F51.8 °F26 %29.86 in6.2 miSSE (150°)13.8 mph
7:30 PM89.6 °F51.8 °F27 %29.86 in6.2 miSE (140°)11.5 mphScattered Clouds
8:00 PM87.8 °F51.8 °F29 %29.89 in6.2 miSE (130°)12.7 mph
8:30 PM87.8 °F51.8 °F29 %29.89 in6.2 miSE (130°)11.5 mphMostly Cloudy
9:00 PM87.8 °F51.8 °F29 %29.89 in6.2 miESE (120°)11.5 mph
9:00 PM88.0 °F52.0 °F19 %29.79 inESE (120°)11.5 mph
9:30 PM87.0 °F53.0 °F21 %29.81 inSE (130°)13.8 mph
9:30 PM87.8 °F53.6 °F31 %29.92 in6.2 miSE (130°)13.8 mphScattered Clouds
10:00 PM86.0 °F53.6 °F33 %29.92 in6.2 miESE (120°)16.1 mphMostly Cloudy
10:15 PM86.0 °F53.6 °F33 %29.92 in6.2 miESE (120°)18.4 mph29.9 mphMostly Cloudy
10:30 PM84.2 °F53.6 °F35 %29.92 in6.2 miESE (110°)19.6 mphScattered Clouds
11:00 PM82.4 °F55.4 °F39 %29.95 in6.2 miEast (80°)10.4 mph
11:30 PM82.4 °F57.2 °F42 %29.95 in6.2 miENE (70°)15.0 mph
Hourly data recorded from YBAS, located miles away from Alice Springs, Northern Territory







STORIES FROM OUR PARTNERS